• In France
  • List of Countries
  • For 7 days
  • Water Temperature
  • Satellite Maps
  • Weather Map
  • Weather Widgets
  • user-avatar
    Login

    Hourly Weather Szekszard

    Today, 18 October, Thursday

    Time Temperature Precipitation Wind Pressure Humidity
    00:00 +16°C° 0 mm 1 mps 756 mmHg 40%
    01:00 +16°C° 0 mm 2 mps 756 mmHg 41%
    02:00 +15°C° 0 mm 2 mps 756 mmHg 42%
    03:00 +15°C° 0 mm 2 mps 755 mmHg 44%
    04:00 +15°C° 0 mm 2 mps 755 mmHg 45%
    05:00 +15°C° 0 mm 2 mps 755 mmHg 46%
    06:00 +15°C° 0 mm 2 mps 755 mmHg 48%
    07:00 +15°C° 0 mm 2 mps 756 mmHg 48%
    08:00 +17°C° 0 mm 2 mps 755 mmHg 46%
    09:00 +19°C° 0 mm 2 mps 755 mmHg 44%
    10:00 +20°C° 0 mm 2 mps 755 mmHg 42%
    11:00 +21°C° 0 mm 2 mps 755 mmHg 40%
    12:00 +23°C° 0 mm 2 mps 755 mmHg 39%
    13:00 +24°C° 0 mm 2 mps 755 mmHg 38%
    14:00 +24°C° 0 mm 2 mps 754 mmHg 39%
    15:00 +23°C° 0 mm 2 mps 754 mmHg 40%
    16:00 +23°C° 0 mm 1 mps 754 mmHg 41%
    17:00 +21°C° 0 mm 2 mps 754 mmHg 42%
    18:00 +20°C° 0 mm 2 mps 754 mmHg 43%
    19:00 +19°C° 0 mm 2 mps 754 mmHg 43%
    20:00 +19°C° 0 mm 2 mps 755 mmHg 43%
    21:00 +18°C° 0 mm 2 mps 755 mmHg 43%
    22:00 +18°C° 0 mm 2 mps 755 mmHg 43%
    23:00 +17°C° 0 mm 2 mps 755 mmHg 44%

    Tomorrow, 19 October, Friday

    Time Temperature Precipitation Wind Pressure Humidity
    00:00 +18°C° 0 mm 1 mps 755 mmHg 46%
    01:00 +16°C° 0 mm 1 mps 755 mmHg 48%
    02:00 +16°C° 0.1 mm 1 mps 755 mmHg 50%
    03:00 +16°C° 0.1 mm 1 mps 755 mmHg 52%
    04:00 +15°C° 0.1 mm 1 mps 755 mmHg 54%
    05:00 +15°C° 0.2 mm 1 mps 756 mmHg 56%
    06:00 +15°C° 0.2 mm 1 mps 756 mmHg 57%
    07:00 +15°C° 0.2 mm 1 mps 756 mmHg 59%
    08:00 +18°C° 0.1 mm 1 mps 756 mmHg 55%
    09:00 +19°C° 0.1 mm 1 mps 756 mmHg 51%
    10:00 +20°C° 0.1 mm 1 mps 757 mmHg 46%
    11:00 +20°C° 0.1 mm 2 mps 757 mmHg 44%
    12:00 +21°C° 0.1 mm 2 mps 756 mmHg 42%
    13:00 +23°C° 0.1 mm 2 mps 756 mmHg 40%
    14:00 +23°C° 0.1 mm 2 mps 756 mmHg 42%
    15:00 +21°C° 0.1 mm 2 mps 756 mmHg 43%
    16:00 +21°C° 0.1 mm 2 mps 756 mmHg 44%
    17:00 +19°C° 0.1 mm 2 mps 756 mmHg 50%
    18:00 +18°C° 0.1 mm 2 mps 757 mmHg 56%
    19:00 +16°C° 0.1 mm 2 mps 757 mmHg 62%
    20:00 +16°C° 0 mm 1 mps 757 mmHg 64%
    21:00 +15°C° 0 mm 1 mps 758 mmHg 66%
    22:00 +15°C° 0 mm 1 mps 758 mmHg 68%
    23:00 +14°C° 0 mm 1 mps 758 mmHg 69%

    Day after tomorrow, 20 October, Saturday

    Time Temperature Precipitation Wind Pressure Humidity
    00:00 +14°C° 0 mm 1 mps 758 mmHg 70%
    01:00 +13°C° 0 mm 1 mps 758 mmHg 72%
    02:00 +13°C° 0 mm 1 mps 758 mmHg 72%
    03:00 +13°C° 0 mm 1 mps 759 mmHg 73%
    04:00 +13°C° 0 mm 1 mps 759 mmHg 74%
    05:00 +13°C° 0 mm 2 mps 759 mmHg 74%
    06:00 +13°C° 0 mm 2 mps 759 mmHg 74%
    07:00 +13°C° 0 mm 2 mps 760 mmHg 74%
    08:00 +15°C° 0 mm 2 mps 760 mmHg 67%
    09:00 +17°C° 0 mm 2 mps 760 mmHg 59%
    10:00 +19°C° 0 mm 3 mps 760 mmHg 52%
    11:00 +20°C° 0 mm 3 mps 760 mmHg 49%
    12:00 +21°C° 0 mm 3 mps 760 mmHg 46%
    13:00 +22°C° 0 mm 3 mps 760 mmHg 43%
    14:00 +22°C° 0 mm 3 mps 759 mmHg 44%
    15:00 +21°C° 0 mm 3 mps 759 mmHg 45%
    16:00 +21°C° 0 mm 3 mps 759 mmHg 46%
    17:00 +19°C° 0 mm 3 mps 759 mmHg 52%
    18:00 +18°C° 0 mm 3 mps 760 mmHg 57%
    19:00 +16°C° 0 mm 3 mps 760 mmHg 62%
    20:00 +16°C° 0 mm 3 mps 760 mmHg 64%
    21:00 +14°C° 0 mm 3 mps 760 mmHg 67%
    22:00 +13°C° 0 mm 3 mps 761 mmHg 69%
    23:00 +13°C° 0 mm 3 mps 761 mmHg 70%

    21 October, Sunday

    Time Temperature Precipitation Wind Pressure Humidity
    00:00 +12°C° 0 mm 3 mps 761 mmHg 71%
    01:00 +12°C° 0 mm 3 mps 761 mmHg 71%
    02:00 +11°C° 0 mm 3 mps 761 mmHg 73%
    03:00 +11°C° 0 mm 3 mps 761 mmHg 74%
    04:00 +10°C° 0 mm 3 mps 761 mmHg 75%
    05:00 +10°C° 0 mm 3 mps 761 mmHg 75%
    06:00 +10°C° 0 mm 3 mps 761 mmHg 74%
    07:00 +10°C° 0 mm 3 mps 761 mmHg 73%
    08:00 +11°C° 0 mm 3 mps 761 mmHg 66%
    09:00 +12°C° 0 mm 3 mps 761 mmHg 59%
    10:00 +14°C° 0 mm 3 mps 762 mmHg 51%
    11:00 +16°C° 0 mm 3 mps 761 mmHg 47%
    12:00 +17°C° 0 mm 3 mps 761 mmHg 43%
    13:00 +17°C° 0 mm 3 mps 760 mmHg 39%
    14:00 +17°C° 0 mm 4 mps 760 mmHg 39%
    15:00 +17°C° 0 mm 4 mps 760 mmHg 39%
    16:00 +15°C° 0 mm 4 mps 759 mmHg 39%
    17:00 +14°C° 0 mm 4 mps 759 mmHg 45%
    18:00 +12°C° 0 mm 3 mps 760 mmHg 51%
    19:00 +11°C° 0 mm 3 mps 760 mmHg 57%
    20:00 +11°C° 0 mm 3 mps 760 mmHg 58%
    21:00 +10°C° 0 mm 3 mps 760 mmHg 60%
    22:00 +10°C° 0 mm 2 mps 760 mmHg 62%
    23:00 +10°C° 0 mm 2 mps 760 mmHg 62%

    22 October, Monday

    Time Temperature Precipitation Wind Pressure Humidity
    00:00 +9°C° 0 mm 2 mps 760 mmHg 62%
    01:00 +9°C° 0 mm 2 mps 760 mmHg 62%
    02:00 +9°C° 0 mm 2 mps 760 mmHg 63%
    03:00 +8°C° 0 mm 2 mps 760 mmHg 65%
    04:00 +8°C° 0 mm 2 mps 759 mmHg 66%
    05:00 +8°C° 0 mm 2 mps 760 mmHg 65%
    06:00 +8°C° 0 mm 2 mps 760 mmHg 65%
    07:00 +8°C° 0 mm 2 mps 760 mmHg 64%
    08:00 +9°C° 0 mm 3 mps 760 mmHg 59%
    09:00 +11°C° 0 mm 3 mps 760 mmHg 54%
    10:00 +12°C° 0 mm 4 mps 760 mmHg 49%
    11:00 +13°C° 0 mm 4 mps 760 mmHg 45%
    12:00 +13°C° 0 mm 4 mps 760 mmHg 40%
    13:00 +14°C° 0 mm 5 mps 759 mmHg 36%
    14:00 +14°C° 0 mm 4 mps 759 mmHg 36%
    15:00 +14°C° 0 mm 4 mps 759 mmHg 36%
    16:00 +14°C° 0 mm 3 mps 759 mmHg 36%
    17:00 +12°C° 0 mm 3 mps 759 mmHg 40%
    18:00 +12°C° 0 mm 2 mps 759 mmHg 44%
    19:00 +9°C° 0 mm 2 mps 759 mmHg 48%
    20:00 +9°C° 0 mm 2 mps 759 mmHg 49%
    21:00 +9°C° 0 mm 1 mps 760 mmHg 51%
    22:00 +9°C° 0 mm 1 mps 760 mmHg 53%
    23:00 +8°C° 0 mm 1 mps 759 mmHg 55%

    23 October, Tuesday

    Time Temperature Precipitation Wind Pressure Humidity
    00:00 +8°C° 0 mm 1 mps 759 mmHg 57%
    01:00 +7°C° 0 mm 2 mps 759 mmHg 59%
    02:00 +7°C° 0 mm 2 mps 758 mmHg 61%
    03:00 +6°C° 0 mm 2 mps 758 mmHg 63%
    04:00 +6°C° 0 mm 2 mps 757 mmHg 66%
    05:00 +7°C° 0.2 mm 2 mps 757 mmHg 69%
    06:00 +7°C° 0.2 mm 3 mps 757 mmHg 72%
    07:00 +8°C° 0.2 mm 3 mps 757 mmHg 75%
    08:00 +8°C° 0.4 mm 3 mps 756 mmHg 76%
    09:00 +8°C° 0.4 mm 4 mps 756 mmHg 77%
    10:00 +10°C° 0.4 mm 4 mps 756 mmHg 78%
    11:00 +10°C° 0.1 mm 5 mps 755 mmHg 71%
    12:00 +13°C° 0.1 mm 5 mps 755 mmHg 65%
    13:00 +14°C° 0.1 mm 5 mps 754 mmHg 58%
    14:00 +13°C° 0 mm 5 mps 754 mmHg 58%
    15:00 +13°C° 0 mm 5 mps 753 mmHg 57%
    16:00 +12°C° 0 mm 4 mps 753 mmHg 57%
    17:00 +11°C° 0 mm 4 mps 753 mmHg 61%
    18:00 +10°C° 0 mm 3 mps 752 mmHg 65%
    19:00 +9°C° 0 mm 3 mps 752 mmHg 68%
    20:00 +9°C° 0 mm 2 mps 752 mmHg 70%
    21:00 +9°C° 0 mm 2 mps 752 mmHg 71%
    22:00 +8°C° 0 mm 2 mps 752 mmHg 72%
    23:00 +8°C° 0.2 mm 2 mps 751 mmHg 75%
    Show more